Gainesville, FL

3:35 AM EDT on April 20, 2018 (GMT -0400)
Gainesville Regional

Weather History for KGNV - June, 2014

Change the Weather History Date:

Tuesday, June 10, 2014

  Actual Average Record
Temperature  
Mean Temperature 80 °F 79 °F  
Max Temperature 91 °F 90 °F 99 °F (1899)
Min Temperature 69 °F 69 °F 55 °F (1960)
Degree Days  
Heating Degree Days 0 0  
Month to date heating degree days 0 0  
Since 1 June heating degree days 0 0  
Since 1 July heating degree days 1098 1218  
Cooling Degree Days 15 14  
Month to date cooling degree days 126 136  
Year to date cooling degree days 627 646  
Since 1 June cooling degree days 126 136  
Growing Degree Days 30 (Base 50)    
Moisture  
Dew Point 69 °F    
Average Humidity 78    
Maximum Humidity 100    
Minimum Humidity 56    
Precipitation  
Precipitation 0.16 in 0.21 in 2.20 in (1992)
Month to date precipitation 0.91 1.92  
Year to date precipitation 21.45 17.91  
Snow  
Snow 0.00 in 0.00 in 0.00 in ()
Month to date snowfall 0.0 0.0  
Since 1 June snowfall 0.0 0.0  
Since 1 July snowfall 0.0 0.0  
Snow Depth 0.00 in    
Sea Level Pressure  
Sea Level Pressure 30.00 in    
Wind  
Wind Speed 5 mph (South)    
Max Wind Speed 33 mph    
Max Gust Speed 45 mph    
Visibility 9 miles    
Events Rain , Thunderstorm    
T = Trace of Precipitation, MM = Missing Value Source: NWS Daily Summary

Daily Weather History Graph

Daily Weather History Graph

Search for Another Location

Airport or City:

Astronomy

Jun. 10, 2014 Rise Set
Actual Time 6:28 AM EDT 8:29 PM EDT
Civil Twilight 6:00 AM EDT 8:56 PM EDT
Nautical Twilight 5:27 AM EDT 9:29 PM EDT
Astronomical Twilight 4:52 AM EDT 10:04 PM EDT
Moon 6:02 PM EDT (6/10) 4:21 AM EDT (6/10)
Length of Visible Light 14h 55m
Length of Day
14h 01m
Waxing Gibbous, 92% of the Moon is Illuminated
Jun 10
Waxing Gibbous
Jun 13
Full
Jun 19
Last Quarter
Jun 27
New
Jul 5
First Quarter

Hourly Weather History & Observations

Time (EDT) Temp. Heat Index Dew Point Humidity Pressure Visibility Wind Dir Wind Speed Gust Speed Precip Events Conditions
12:53 AM 72.0 °F - 69.1 °F 91% 29.99 in 10.0 mi Calm Calm - N/A   Clear
1:53 AM 72.0 °F - 69.1 °F 91% 29.99 in 10.0 mi Calm Calm - N/A   Clear
2:53 AM 71.1 °F - 69.1 °F 93% 29.99 in 10.0 mi Calm Calm - N/A   Clear
3:53 AM 70.0 °F - 69.1 °F 97% 29.98 in 10.0 mi Calm Calm - N/A   Clear
4:53 AM 70.0 °F - 69.1 °F 97% 29.98 in 10.0 mi Calm Calm - N/A   Clear
5:53 AM 69.1 °F - 68.0 °F 96% 29.98 in 10.0 mi Calm Calm - N/A   Clear
6:35 AM 69.1 °F - 68.0 °F 96% 29.99 in 10.0 mi Calm Calm - N/A   Clear
6:53 AM 69.1 °F - 69.1 °F 100% 29.99 in 10.0 mi Calm Calm - N/A   Clear
7:53 AM 73.9 °F - 71.1 °F 91% 29.99 in 10.0 mi Calm Calm - N/A   Clear
8:53 AM 80.1 °F 84.5 °F 73.9 °F 81% 30.00 in 10.0 mi ESE 3.5 mph - N/A   Clear
9:53 AM 82.9 °F 88.8 °F 73.0 °F 72% 30.00 in 10.0 mi Variable 4.6 mph - N/A   Clear
11:53 AM 87.1 °F 92.8 °F 71.1 °F 59% 30.01 in 10.0 mi SW 8.1 mph - N/A   Scattered Clouds
12:53 PM 88.0 °F 94.7 °F 72.0 °F 59% 30.00 in 10.0 mi West 6.9 mph - N/A   Mostly Cloudy
1:53 PM 90.0 °F 96.4 °F 71.1 °F 54% 29.98 in 10.0 mi Variable 4.6 mph - N/A   Partly Cloudy
2:53 PM 89.1 °F 95.0 °F 71.1 °F 55% 29.97 in 10.0 mi North - - N/A   Mostly Cloudy
3:53 PM 88.0 °F 96.5 °F 73.9 °F 63% 29.96 in 10.0 mi West 8.1 mph - N/A   Clear
5:53 PM 87.1 °F 92.8 °F 71.1 °F 59% 29.97 in 10.0 mi SSE 8.1 mph - N/A   Clear
6:19 PM 84.9 °F 90.1 °F 71.1 °F 63% 29.98 in 10.0 mi South 13.8 mph - N/A Thunderstorm Scattered Clouds
6:50 PM 73.4 °F - 66.2 °F 78% 30.02 in 7.0 mi SSE 24.2 mph 33.4 mph 0.00 in Rain , Thunderstorm Light Thunderstorms and Rain
6:53 PM 73.0 °F - 66.0 °F 79% 30.02 in 4.0 mi SSE 20.7 mph 31.1 mph 0.01 in Rain , Thunderstorm Heavy Thunderstorms and Rain
6:57 PM 72.0 °F - 66.9 °F 84% 30.03 in 2.0 mi SE 21.9 mph 29.9 mph 0.06 in Rain , Thunderstorm Heavy Thunderstorms and Rain
7:05 PM 71.1 °F - 66.9 °F 87% 30.03 in 2.5 mi ESE 19.6 mph 29.9 mph 0.11 in Rain , Thunderstorm Heavy Thunderstorms and Rain
7:12 PM 71.1 °F - 68.0 °F 90% 30.02 in 5.0 mi ESE 18.4 mph 25.3 mph 0.14 in Rain , Thunderstorm Thunderstorms and Rain
7:25 PM 71.1 °F - 66.0 °F 84% 30.02 in 10.0 mi ENE 10.4 mph 21.9 mph 0.15 in Rain , Thunderstorm Light Rain
7:53 PM 72.0 °F - 66.9 °F 84% 30.03 in 10.0 mi South 12.7 mph - 0.15 in   Overcast
8:53 PM 71.1 °F - 66.0 °F 84% 30.01 in 10.0 mi SW 8.1 mph - 0.00 in   Partly Cloudy
9:53 PM 71.1 °F - 66.9 °F 87% 29.99 in 10.0 mi SW 5.8 mph - 0.00 in   Scattered Clouds